Regional Weather Roundup
Issued by NWS

Home | Current Version | Previous Version | Graphics & Text | Print | Product List | Glossary On
Versions: 1 2 3 4 5 6 7 8 9 10 11 12 13 14 15 16 17 18 19 20 21 22 23 24 25 26 27 28 29 30 31 32 33 34 35 36 37 38 39 40 41 42 43 44 45 46 47 48 49 50
000
ASUS43 KOAX 020002
RWRNE

WEATHER ROUNDUP FOR NEBRASKA
NATIONAL WEATHER SERVICE OMAHA NE
700 PM CDT FRI AUG 01 2014

NOTES: SATELLITE DATA IS BEING USED TO AUGMENT CLOUD COVER ABOVE
       12000 FEET.
       "FAIR" INDICATES FEW OR NO CLOUDS BELOW 12,000 FEET WITH NO
       SIGNIFICANT WEATHER AND/OR OBSTRUCTIONS TO VISIBILITY.

  * THESE STATIONS DO NOT REPORT WEATHER SUCH AS RAIN...SNOW OR FOG.

NEZ001>004-019>022-054>056-020100-
NEBRASKA PANHANDLE

CITY           SKY/WX    TMP DP  RH WIND       PRES   REMARKS
SCOTTSBLUFF    MOSUNNY   89  36  15 E8        30.13F
6HR MIN TEMP:  86; 6HR MAX TEMP:  90;

ALLIANCE       MOSUNNY   88  36  15 S8        30.12F
6HR MIN TEMP:  85; 6HR MAX TEMP:  90;

CHADRON        CLOUDY    79  51  37 NE9G22    30.10R
6HR MIN TEMP:  76; 6HR MAX TEMP:  96; 6HR PCP: TRACE;

KIMBALL        MOSUNNY   82  39  21 SE6       30.19F
SIDNEY         MOSUNNY   87  39  18 VRB5      30.17F
6HR MIN TEMP:  83; 6HR MAX TEMP:  90;

$$

NEZ057>060-069>072-079>082-020100-
SOUTHWEST NEBRASKA

CITY           SKY/WX    TMP DP  RH WIND       PRES   REMARKS
NORTH PLATTE   SUNNY     82  53  36 E12       30.09S
6HR MIN TEMP:  75; 6HR MAX TEMP:  90; 6HR PCP:  0.18;

IMPERIAL       SUNNY     88  46  23 E7        30.11F
6HR MIN TEMP:  87; 6HR MAX TEMP:  90;

MCCOOK         MOSUNNY   85  56  37 SE7       30.10F
6HR MIN TEMP:  85; 6HR MAX TEMP:  91;

$$

NEZ005>010-023>029-035>040-094-020100-
NORTH CENTRAL NEBRASKA

CITY           SKY/WX    TMP DP  RH WIND       PRES   REMARKS
VALENTINE      MOSUNNY   92  46  20 E9G20     30.03F
6HR MIN TEMP:  87; 6HR MAX TEMP:  94;

AINSWORTH      SUNNY     84  57  39 E9        30.07S
BROKEN BOW     SUNNY     85  60  42 SE10      30.09S
6HR MIN TEMP:  83; 6HR MAX TEMP:  88;

ORD            SUNNY     82  57  42 E9        30.08S
6HR MIN TEMP:  81; 6HR MAX TEMP:  86;

$$

NEZ041-046>049-061>064-073>077-083>087-020100-
SOUTH CENTRAL NEBRASKA

CITY           SKY/WX    TMP DP  RH WIND       PRES   REMARKS
GRAND ISLAND   SUNNY     81  60  48 E9        30.10S
6HR MIN TEMP:  80; 6HR MAX TEMP:  85;

AURORA         SUNNY     80  62  55 E5        30.09S
HASTINGS       SUNNY     80  57  45 E7        30.09F
6HR MIN TEMP:  80; 6HR MAX TEMP:  84;

HEBRON         SUNNY     82  58  43 N8        30.06S
HOLDREGE       SUNNY     82  58  43 E9        30.10S
KEARNEY *      SUNNY     82  59  44 NE9       30.11R
YORK           MOSUNNY   79  64  61 E6        30.09S
$$

NEZ011>018-030>034-042>045-020100-
NORTHEAST NEBRASKA

CITY           SKY/WX    TMP DP  RH WIND       PRES   REMARKS
NORFOLK        SUNNY     81  57  43 SE8       30.08F
6HR MIN TEMP:  79; 6HR MAX TEMP:  84;

ALBION         SUNNY     80  57  45 SE7       30.09F
BLAIR          SUNNY     78  60  54 E6        30.07F
COLUMBUS *     SUNNY     81  61  50 E6        30.09S
FREMONT        MOSUNNY   81  60  48 E5        30.08S
TEKAMAH        SUNNY     83  62  49 E6        30.06F
6HR MIN TEMP:  82; 6HR MAX TEMP:  86;

$$

NEZ050>053-065>068-078-088>093-020100-
SOUTHEAST NEBRASKA

CITY           SKY/WX    TMP DP  RH WIND       PRES   REMARKS
LINCOLN        SUNNY     83  58  42 E9        30.07S
6HR MIN TEMP:  79; 6HR MAX TEMP:  86;

OMAHA EPPLEY   MOSUNNY   82  60  47 E6        30.06F
6HR MIN TEMP:  79; 6HR MAX TEMP:  86;

BEATRICE       SUNNY     82  64  54 E9        30.05S
FALLS CITY     SUNNY     82  63  52 E7        30.04F
6HR MIN TEMP:  79; 6HR MAX TEMP:  86;

NEBRASKA CITY  SUNNY     79  58  48 E5        30.07S
PLATTSMOUTH    SUNNY     81  61  50 CALM      30.06F
$$

NEZ044-045-051>053-067-020100-
OMAHA AREA

CITY           SKY/WX    TMP DP  RH WIND       PRES   REMARKS
OMAHA EPPLEY   MOSUNNY   82  60  47 E6        30.06F
6HR MIN TEMP:  79; 6HR MAX TEMP:  86;

BLAIR          SUNNY     78  60  54 E6        30.07F
FREMONT        MOSUNNY   81  60  48 E5        30.08S
OFFUTT AFB     SUNNY     82  64  55 E6        30.06F
PLATTSMOUTH    SUNNY     81  61  50 CALM      30.06F
WAHOO          FAIR      82  61  50 E3        30.07S
$$


USA.gov is the U.S. government's official web portal to all federal, state and local government web resources and services.